{"data":{"norad_id":45158,"intl_designator":"2020-008AD","name":"ONEWEB-0054","alt_names":[],"object_type":"PAYLOAD","status":"ACTIVE","operator":null,"country":"UK","launch_date":"2020-02-06","launch_site_code":"TYMSC","launch_vehicle":null,"mission":null,"orbit_class":"UNKNOWN","rcs_meters":null,"size_class":null,"mass_kg":null,"dimensions":null,"purposes":["comms"],"wikipedia_slug":null,"has_3d_model":false,"image_url":null,"decayed_at":null,"tle_current":{"epoch":"2026-05-25T04:12:40.868064Z","epoch_age_seconds":66792,"freshness":"FRESH","line1":"1 45158U 20008AD  26145.17547301  .00000212  00000+0  56977-3 0  9990","line2":"2 45158  87.8857  40.8464 0001826  81.9742 278.1593 13.10370550305011","mean_motion":13.1037055,"eccentricity":0.0001826,"inclination_deg":87.8857,"raan_deg":40.8464,"arg_perigee_deg":81.9742,"mean_anomaly_deg":278.1593,"bstar":0.00056977,"rev_number":30501,"period_min":109.89257962185,"perigee_km":1220.3381811994,"apogee_km":1223.1136511364,"semimajor_km":7599.8629161679,"source":"CELESTRAK","updated_at":"2026-05-25T13:38:22.339066Z"}}}